Location: Coupvray
(48.8929°N, 2.7967°E)
Time: 12:23:24
(UTC+00:00)

Altair 2 - Pass Details

Date: 23 January 2021
Orbit: 837 x 949 km, 90.2° (Epoch: 28 February)

Event Time Altitude Azimuth Distance (km) Brightness Sun altitude
Rises 04:22:31 0° 15° (NNE) 3,457 11.1 -30.5°
Reaches altitude 10° 04:26:02 10° 38° (NE) 2,535 10.6 -29.9°
Maximum altitude 04:29:18 15° 73° (ENE) 2,186 10.6 -29.4°
Drops below altitude 10° 04:32:37 10° 109° (ESE) 2,569 11.0 -28.9°
Sets 04:36:12 0° 131° (SE) 3,529 11.6 -28.3°
